Tinker AFB, OK

4:23 AM CST on December 13, 2017 (GMT -0600)
Tinker Air Force Base

Weather History for KTIK - November, 2013

Change the Weather History Date:

Thursday, November 14, 2013

  Actual Average Record
Temperature  
Mean Temperature 44 °F -  
Max Temperature 54 °F 57 °F 77 °F (1999)
Min Temperature 33 °F 40 °F 20 °F (2014)
Degree Days  
Heating Degree Days 22    
Moisture  
Dew Point 29 °F    
Average Humidity 58    
Maximum Humidity 83    
Minimum Humidity 36    
Precipitation  
Precipitation 0.00 in - - ()
Sea Level Pressure  
Sea Level Pressure 30.11 in    
Wind  
Wind Speed 15 mph (South)    
Max Wind Speed 21 mph    
Max Gust Speed 29 mph    
Visibility 10 miles    
Events Rain    
Averages and records for this station are not official NWS values.
T = Trace of Precipitation, MM = Missing Value Source: NWS Daily Summary

Daily Weather History Graph

Daily Weather History Graph

Search for Another Location

Airport or City:

Trip Planner

Search our weather history database for the weather conditions in past years. The results will help you decide how hot, cold, wet, or windy it might be!

Date:

Astronomy

Nov. 14, 2013 Rise Set
Actual Time 7:04 AM CST 5:23 PM CST
Civil Twilight 6:37 AM CST 5:50 PM CST
Nautical Twilight 6:06 AM CST 6:21 PM CST
Astronomical Twilight 5:36 AM CST 6:51 PM CST
Moon 3:40 PM CST (11/14) 4:06 AM CST (11/14)
Length of Visible Light 11h 13m
Length of Day
10h 19m
Waxing Gibbous, 92% of the Moon is Illuminated
Nov 14
Waxing Gibbous
Nov 17
Full
Nov 25
Last Quarter
Dec 2
New
Dec 9
First Quarter

Hourly Weather History & Observations

Time (CST) Temp. Windchill Dew Point Humidity Pressure Visibility Wind Dir Wind Speed Gust Speed Precip Events Conditions
12:58 AM 35.4 °F 26.4 °F 23.9 °F 63% 30.30 in 10.0 mi South 13.8 mph - N/A   Clear
1:58 AM 36.3 °F 27.1 °F 23.4 °F 59% 30.28 in 10.0 mi South 15.0 mph - N/A   Clear
2:58 AM 34.3 °F 24.6 °F 23.9 °F 66% 30.26 in 10.0 mi South 15.0 mph - N/A   Clear
3:58 AM 34.3 °F 25.0 °F 24.3 °F 67% 30.24 in 10.0 mi South 13.8 mph - N/A   Clear
4:58 AM 35.1 °F 25.2 °F 24.6 °F 66% 30.24 in 10.0 mi South 16.1 mph - N/A   Clear
5:58 AM 34.0 °F 25.0 °F 24.8 °F 69% 30.24 in 10.0 mi South 12.7 mph - N/A   Clear
6:58 AM 33.3 °F 24.6 °F 25.0 °F 72% 30.24 in 10.0 mi South 11.5 mph - N/A   Clear
7:58 AM 35.6 °F 26.2 °F 25.3 °F 66% 30.22 in 10.0 mi South 15.0 mph - N/A   Clear
8:55 AM 39.6 °F 30.3 °F 25.9 °F 58% 30.19 in 10.0 mi South 18.4 mph - N/A   Clear
8:56 AM 39.2 °F 30.2 °F 26.6 °F 61% 30.17 in 10.0 mi South 17.3 mph - N/A   Clear
9:56 AM 42.8 °F 34.0 °F 26.6 °F 53% 30.16 in 10.0 mi South 20.7 mph 24.2 mph N/A   Clear
10:58 AM 47.5 °F - 27.1 °F 45% 30.17 in 10.0 mi South 16.1 mph - N/A   Clear
11:58 AM 51.1 °F - 27.9 °F 41% 30.14 in 10.0 mi South 18.4 mph - N/A   Clear
12:58 PM 52.2 °F - 28.4 °F 40% 30.09 in 10.0 mi South 19.6 mph 27.6 mph N/A   Clear
1:58 PM 53.6 °F - 27.0 °F 36% 30.04 in 10.0 mi South 16.1 mph 24.2 mph N/A   Clear
2:58 PM 54.1 °F - 27.9 °F 36% 30.04 in 10.0 mi South 17.3 mph 24.2 mph N/A   Clear
3:58 PM 51.3 °F - 27.3 °F 40% 30.03 in 10.0 mi South 16.1 mph 28.8 mph N/A   Partly Cloudy
4:58 PM 49.3 °F - 30.2 °F 48% 30.03 in 10.0 mi South 19.6 mph 24.2 mph N/A   Partly Cloudy
5:58 PM 47.1 °F - 31.1 °F 54% 30.03 in 10.0 mi South 15.0 mph - N/A   Clear
6:58 PM 45.3 °F 39.0 °F 33.3 °F 63% 30.03 in 10.0 mi South 13.8 mph - N/A   Scattered Clouds
7:54 PM 46.4 °F 42.9 °F 32.0 °F 57% 30.01 in 10.0 mi South 6.9 mph - N/A Rain Light Rain
7:58 PM 46.0 °F 42.5 °F 33.6 °F 62% 30.05 in 10.0 mi SSW 6.9 mph - 0.00 in Rain Light Rain
8:08 PM 44.6 °F 40.2 °F 33.8 °F 66% 30.01 in 10.0 mi South 8.1 mph - N/A   Mostly Cloudy
8:58 PM 45.7 °F 41.5 °F 34.2 °F 64% 30.00 in 10.0 mi SSE 8.1 mph - 0.00 in   Overcast
9:58 PM 46.6 °F - 35.4 °F 65% 29.99 in 10.0 mi SSE 10.4 mph - N/A   Overcast
10:58 PM 47.7 °F - 35.8 °F 63% 30.00 in 10.0 mi South 15.0 mph - N/A   Overcast
11:31 PM 46.4 °F 41.1 °F 37.4 °F 71% 29.98 in 10.0 mi South 11.5 mph - N/A   Light Drizzle
11:58 PM 44.6 °F 38.8 °F 39.7 °F 83% 30.00 in 10.0 mi South 11.5 mph - 0.00 in Rain Light Rain